EZY157P EGAC-EGPH

Flight info

Callsign EZY157P
Flight time 0h 27m
Altitude 17000
Route MAGEE DCT BLACA P600 TUNSO
Aircraft A320/M-SDE3FGHIRWY/LB1

Departure

Time 2026-05-06 07:24
Airport George Best Belfast City Airport (EGAC)

Arrival

Time 2026-05-06 07:52
Airport Edinburgh Airport (EGPH)
Time Latitude Longitude Altitude Speed Heading
2026-05-06 07:24 54.74411 -5.69428 7296 ft 276 kts 47°
2026-05-06 07:24 54.75751 -5.67005 8183 ft 281 kts 46°
2026-05-06 07:24 54.77111 -5.64547 9078 ft 286 kts 45°
2026-05-06 07:25 54.78473 -5.61993 9952 ft 291 kts 50°
2026-05-06 07:25 54.79533 -5.58968 10755 ft 298 kts 65°
2026-05-06 07:25 54.80278 -5.55514 11213 ft 317 kts 69°
2026-05-06 07:25 54.81046 -5.51786 11612 ft 335 kts 69°
2026-05-06 07:26 54.81836 -5.47907 12328 ft 342 kts 69°
2026-05-06 07:26 54.82625 -5.44030 13087 ft 347 kts 69°
2026-05-06 07:26 54.83436 -5.40054 13845 ft 352 kts 69°
2026-05-06 07:26 54.84262 -5.36012 14528 ft 356 kts 69°
2026-05-06 07:27 54.85094 -5.31920 15192 ft 361 kts 69°
2026-05-06 07:27 54.85932 -5.27787 15841 ft 365 kts 69°
2026-05-06 07:27 54.86779 -5.23600 16494 ft 369 kts 69°
2026-05-06 07:27 54.87862 -5.19521 16952 ft 372 kts 56°
2026-05-06 07:28 54.89441 -5.16010 17051 ft 362 kts 41°
2026-05-06 07:28 54.91360 -5.13363 17067 ft 347 kts 28°
2026-05-06 07:28 54.95598 -5.09654 17068 ft 342 kts 23°
2026-05-06 07:29 54.97736 -5.07809 17073 ft 342 kts 23°
2026-05-06 07:29 54.99862 -5.05958 17076 ft 342 kts 23°
2026-05-06 07:29 55.01995 -5.04096 17074 ft 342 kts 23°
2026-05-06 07:29 55.04124 -5.02240 17069 ft 342 kts 23°
2026-05-06 07:30 55.06253 -5.00383 17073 ft 342 kts 23°
2026-05-06 07:30 55.08377 -4.98503 17075 ft 343 kts 26°
2026-05-06 07:30 55.10313 -4.96019 17081 ft 347 kts 41°
2026-05-06 07:30 55.11839 -4.92807 16927 ft 344 kts 56°
2026-05-06 07:31 55.12890 -4.89082 16730 ft 338 kts 65°
2026-05-06 07:31 55.13822 -4.85319 16523 ft 335 kts 65°
2026-05-06 07:31 55.14746 -4.81595 16344 ft 333 kts 65°
2026-05-06 07:31 55.15656 -4.77928 16144 ft 332 kts 65°
2026-05-06 07:32 55.16574 -4.74225 15972 ft 331 kts 65°
2026-05-06 07:32 55.17490 -4.70534 15781 ft 330 kts 65°
2026-05-06 07:32 55.18403 -4.66843 15609 ft 329 kts 65°
2026-05-06 07:32 55.19309 -4.63176 15418 ft 327 kts 65°
2026-05-06 07:33 55.20211 -4.59512 15242 ft 326 kts 65°
2026-05-06 07:33 55.21109 -4.55864 15058 ft 325 kts 65°
2026-05-06 07:33 55.22000 -4.52234 14876 ft 324 kts 65°
2026-05-06 07:33 55.22889 -4.48615 14687 ft 323 kts 65°
2026-05-06 07:34 55.23774 -4.45004 14516 ft 322 kts 65°
2026-05-06 07:34 55.24642 -4.41449 14332 ft 321 kts 65°
2026-05-06 07:34 55.25517 -4.37853 14157 ft 320 kts 65°
2026-05-06 07:34 55.26387 -4.34269 13978 ft 319 kts 65°
2026-05-06 07:35 55.27253 -4.30701 13787 ft 317 kts 65°
2026-05-06 07:35 55.28117 -4.27140 13602 ft 316 kts 65°
2026-05-06 07:35 55.28975 -4.23602 13426 ft 315 kts 65°
2026-05-06 07:35 55.29831 -4.20068 13253 ft 314 kts 65°
2026-05-06 07:36 55.30682 -4.16551 13070 ft 313 kts 65°
2026-05-06 07:36 55.31531 -4.13026 12895 ft 312 kts 65°
2026-05-06 07:36 55.32372 -4.09524 12725 ft 310 kts 65°
2026-05-06 07:36 55.33199 -4.06078 12545 ft 309 kts 65°
2026-05-06 07:37 55.34041 -4.02559 12373 ft 308 kts 65°
2026-05-06 07:37 55.34862 -3.99131 12198 ft 307 kts 65°
2026-05-06 07:37 55.35689 -3.95676 12031 ft 306 kts 65°
2026-05-06 07:37 55.36510 -3.92236 11851 ft 304 kts 65°
2026-05-06 07:38 55.37329 -3.88801 11684 ft 303 kts 65°
2026-05-06 07:38 55.38147 -3.85370 11236 ft 303 kts 65°
2026-05-06 07:38 55.38951 -3.81985 10736 ft 298 kts 65°
2026-05-06 07:38 55.39744 -3.78638 10240 ft 293 kts 65°
2026-05-06 07:39 55.40515 -3.75379 9658 ft 290 kts 65°
2026-05-06 07:39 55.41282 -3.72131 9040 ft 285 kts 65°
2026-05-06 07:39 55.42133 -3.69015 8497 ft 279 kts 54°
2026-05-06 07:39 55.43376 -3.66441 7973 ft 274 kts 42°
2026-05-06 07:40 55.44788 -3.64204 7538 ft 271 kts 39°
2026-05-06 07:40 55.46263 -3.62146 7213 ft 270 kts 36°
2026-05-06 07:40 55.47761 -3.60160 6876 ft 268 kts 36°
2026-05-06 07:40 55.48421 -3.59290 6729 ft 267 kts 36°
2026-05-06 07:41 55.49891 -3.57538 6507 ft 263 kts 22°
2026-05-06 07:41 55.51658 -3.56915 6367 ft 260 kts 357°
2026-05-06 07:41 55.53366 -3.57452 6230 ft 237 kts 347°
2026-05-06 07:41 55.54900 -3.58081 6098 ft 224 kts 347°
2026-05-06 07:42 55.56406 -3.58683 5965 ft 220 kts 347°
2026-05-06 07:42 55.57901 -3.59273 5833 ft 219 kts 348°
2026-05-06 07:42 55.58888 -3.59662 5742 ft 218 kts 348°
2026-05-06 07:42 55.60857 -3.60439 5565 ft 218 kts 348°
2026-05-06 07:43 55.62344 -3.61028 5433 ft 218 kts 348°
2026-05-06 07:43 55.63344 -3.61425 5348 ft 218 kts 348°
2026-05-06 07:43 55.65293 -3.62200 5169 ft 219 kts 348°
2026-05-06 07:43 55.66278 -3.62591 5100 ft 219 kts 348°
2026-05-06 07:44 55.67763 -3.63196 4953 ft 219 kts 345°
2026-05-06 07:44 55.69169 -3.64217 4992 ft 220 kts 332°
2026-05-06 07:44 55.70445 -3.65756 4858 ft 221 kts 321°
2026-05-06 07:44 55.71635 -3.67490 4724 ft 222 kts 322°
2026-05-06 07:45 55.72832 -3.69229 4588 ft 222 kts 322°
2026-05-06 07:45 55.74029 -3.70974 4461 ft 222 kts 322°
2026-05-06 07:45 55.75226 -3.72722 4322 ft 222 kts 321°
2026-05-06 07:45 55.76370 -3.74520 4186 ft 222 kts 322°
2026-05-06 07:46 55.77699 -3.75877 4081 ft 220 kts 343°
2026-05-06 07:46 55.79188 -3.76339 4008 ft 217 kts
2026-05-06 07:46 55.80656 -3.75883 4011 ft 215 kts 22°
2026-05-06 07:46 55.81957 -3.74574 4008 ft 213 kts 42°
2026-05-06 07:47 55.82917 -3.72597 4010 ft 211 kts 60°
2026-05-06 07:47 55.83687 -3.70352 4011 ft 212 kts 59°
2026-05-06 07:47 55.84457 -3.68117 3971 ft 213 kts 59°
2026-05-06 07:47 55.85218 -3.65902 3747 ft 211 kts 60°
2026-05-06 07:48 55.85981 -3.63680 3484 ft 210 kts 60°
2026-05-06 07:48 55.86744 -3.61456 3197 ft 208 kts 60°
2026-05-06 07:48 55.87495 -3.59264 2905 ft 205 kts 60°
2026-05-06 07:48 55.88239 -3.57091 2615 ft 206 kts 60°
2026-05-06 07:49 55.88966 -3.54965 2335 ft 200 kts 60°
2026-05-06 07:49 55.89674 -3.52893 2054 ft 192 kts 60°
2026-05-06 07:49 55.90350 -3.50913 1812 ft 180 kts 60°
2026-05-06 07:49 55.90977 -3.49075 1563 ft 167 kts 60°
2026-05-06 07:50 55.91563 -3.47358 1332 ft 153 kts 60°
2026-05-06 07:50 55.92080 -3.45839 1099 ft 140 kts 60°
2026-05-06 07:50 55.92576 -3.44380 892 ft 135 kts 59°
2026-05-06 07:50 55.93055 -3.42974 699 ft 134 kts 59°
2026-05-06 07:51 55.93538 -3.41559 525 ft 133 kts 58°
2026-05-06 07:51 55.94024 -3.40152 329 ft 133 kts 60°
2026-05-06 07:51 55.94501 -3.38737 170 ft 133 kts 59°
2026-05-06 07:51 55.94958 -3.37375 112 ft 116 kts 59°
2026-05-06 07:52 55.95232 -3.36565 111 ft 31 kts 59°
2026-05-06 07:52 55.95228 -3.36392 113 ft 12 kts 142°
2026-05-06 07:52 55.95180 -3.36337 113 ft 7 kts 148°